Monroe, WI

12:57 PM CDT on June 23, 2017 (GMT -0500)
Monroe Municipal

Weather History for KEFT - September, 2012

Change the Weather History Date:

Tuesday, September 11, 2012

  Actual Average Record
Temperature  
Mean Temperature 68 °F -  
Max Temperature 82 °F 0 °F 89 °F (2005)
Min Temperature 55 °F - 44 °F (1999)
Cooling Degree Days 4    
Growing Degree Days 18 (Base 50)    
Moisture  
Dew Point 51 °F    
Average Humidity 55    
Maximum Humidity 82    
Minimum Humidity 32    
Precipitation  
Precipitation 0.00 in - - ()
Sea Level Pressure  
Sea Level Pressure 30.05 in    
Wind  
Wind Speed 15 mph (SSW)    
Max Wind Speed 28 mph    
Max Gust Speed 36 mph    
Visibility 10 miles    
Events      
Averages and records for this station are not official NWS values.
T = Trace of Precipitation, MM = Missing Value Source: NWS Daily Summary

Daily Weather History Graph

Daily Weather History Graph

Search for Another Location

Airport or City:

Trip Planner

Search our weather history database for the weather conditions in past years. The results will help you decide how hot, cold, wet, or windy it might be!

Date:

Astronomy

Sep. 11, 2012 Rise Set
Actual Time 6:34 AM CDT 7:14 PM CDT
Civil Twilight 6:05 AM CDT 7:42 PM CDT
Nautical Twilight 5:32 AM CDT 8:16 PM CDT
Astronomical Twilight 4:57 AM CDT 8:51 PM CDT
Moon 1:46 AM CDT (9/11) 4:28 PM CDT (9/11)
Length of Visible Light 13h 36m
Length of Day
12h 39m
Waning Crescent, 21% of the Moon is Illuminated
Sep 11
Waning Crescent
Sep 15
New
Sep 22
First Quarter
Sep 29
Full
Oct 8
Last Quarter

Hourly Weather History & Observations

Time (CDT) Temp. Dew Point Humidity Pressure Visibility Wind Dir Wind Speed Gust Speed Precip Events Conditions
12:15 AM 60.8 °F 48.2 °F 63% 30.07 in 10.0 mi South 12.7 mph - N/A   Clear
12:35 AM 59.0 °F 48.2 °F 67% 30.07 in 10.0 mi South 10.4 mph - N/A   Clear
12:55 AM 59.0 °F 46.4 °F 63% 30.07 in 10.0 mi South 8.1 mph - N/A   Clear
1:15 AM 59.0 °F 46.4 °F 63% 30.07 in 10.0 mi South 8.1 mph - N/A   Clear
1:35 AM 57.2 °F 46.4 °F 67% 30.07 in 10.0 mi South 9.2 mph - N/A   Clear
1:55 AM 57.2 °F 48.2 °F 72% 30.07 in 10.0 mi South 10.4 mph - N/A   Clear
2:15 AM 55.4 °F 48.2 °F 77% 30.07 in 10.0 mi South 10.4 mph - N/A   Clear
2:35 AM 57.2 °F 48.2 °F 72% 30.07 in 10.0 mi South 12.7 mph - N/A   Clear
2:55 AM 55.4 °F 48.2 °F 77% 30.07 in 10.0 mi SSW 12.7 mph - N/A   Clear
3:15 AM 55.4 °F 48.2 °F 77% 30.07 in 10.0 mi South 11.5 mph - N/A   Clear
3:35 AM 55.4 °F 48.2 °F 77% 30.07 in 10.0 mi South 12.7 mph - N/A   Clear
3:55 AM 55.4 °F 48.2 °F 77% 30.07 in 10.0 mi South 11.5 mph - N/A   Clear
4:15 AM 55.4 °F 48.2 °F 77% 30.07 in 10.0 mi South 13.8 mph - N/A   Clear
4:35 AM 55.4 °F 48.2 °F 77% 30.07 in 10.0 mi South 15.0 mph - N/A   Clear
4:55 AM 55.4 °F 48.2 °F 77% 30.07 in 10.0 mi SSW 11.5 mph - N/A   Clear
5:15 AM 55.4 °F 50.0 °F 82% 30.08 in 10.0 mi SSW 12.7 mph - N/A   Clear
5:35 AM 55.4 °F 50.0 °F 82% 30.08 in 10.0 mi SSW 13.8 mph - N/A   Clear
5:55 AM 55.4 °F 50.0 °F 82% 30.08 in 10.0 mi SSW 15.0 mph - N/A   Clear
6:15 AM 55.4 °F 50.0 °F 82% 30.08 in 10.0 mi SSW 15.0 mph - N/A   Clear
6:35 AM 55.4 °F 50.0 °F 82% 30.08 in 10.0 mi South 17.3 mph - N/A   Clear
6:55 AM 57.2 °F 50.0 °F 77% 30.09 in 10.0 mi SSW 16.1 mph - N/A   Clear
7:15 AM 59.0 °F 50.0 °F 72% 30.09 in 10.0 mi SSW 17.3 mph - N/A   Clear
7:35 AM 59.0 °F 50.0 °F 72% 30.09 in 10.0 mi SSW 15.0 mph - N/A   Clear
7:55 AM 60.8 °F 50.0 °F 68% 30.09 in 10.0 mi SSW 18.4 mph - N/A   Clear
8:15 AM 60.8 °F 50.0 °F 68% 30.09 in 10.0 mi SSW 18.4 mph 23.0 mph N/A   Clear
8:35 AM 62.6 °F 51.8 °F 68% 30.10 in 10.0 mi SSW 16.1 mph 21.9 mph N/A   Clear
8:55 AM 64.4 °F 51.8 °F 64% 30.09 in 10.0 mi SSW 19.6 mph 24.2 mph N/A   Clear
9:15 AM 68.0 °F 51.8 °F 56% 30.09 in 10.0 mi SSW 18.4 mph 24.2 mph N/A   Clear
9:35 AM 69.8 °F 51.8 °F 53% 30.10 in 10.0 mi SSW 23.0 mph 28.8 mph N/A   Clear
9:55 AM 69.8 °F 51.8 °F 53% 30.09 in 10.0 mi SSW 21.9 mph 26.5 mph N/A   Clear
10:15 AM 71.6 °F 51.8 °F 50% 30.09 in 10.0 mi SSW 25.3 mph 29.9 mph N/A   Clear
10:35 AM 73.4 °F 51.8 °F 47% 30.09 in 10.0 mi SSW 26.5 mph 31.1 mph N/A   Clear
10:55 AM 73.4 °F 51.8 °F 47% 30.09 in 10.0 mi SSW 27.6 mph 35.7 mph N/A   Clear
11:15 AM 75.2 °F 51.8 °F 44% 30.08 in 10.0 mi SSW 23.0 mph 28.8 mph N/A   Clear
11:35 AM 77.0 °F 51.8 °F 41% 30.08 in 10.0 mi South 23.0 mph 28.8 mph N/A   Clear
11:55 AM 77.0 °F 51.8 °F 41% 30.08 in 10.0 mi SSW 21.9 mph 31.1 mph N/A   Clear
12:15 PM 77.0 °F 51.8 °F 41% 30.07 in 10.0 mi SSW 20.7 mph 28.8 mph N/A   Clear
12:35 PM 78.8 °F 51.8 °F 39% 30.07 in 10.0 mi South 21.9 mph 27.6 mph N/A   Clear
12:55 PM 78.8 °F 51.8 °F 39% 30.07 in 10.0 mi SSW 20.7 mph - N/A   Clear
1:15 PM 78.8 °F 51.8 °F 39% 30.06 in 10.0 mi South 21.9 mph 29.9 mph N/A   Clear
1:35 PM 80.6 °F 51.8 °F 37% 30.05 in 10.0 mi South 18.4 mph 27.6 mph N/A   Clear
1:55 PM 80.6 °F 51.8 °F 37% 30.05 in 10.0 mi SSW 20.7 mph 26.5 mph N/A   Clear
2:15 PM 82.4 °F 51.8 °F 35% 30.04 in 10.0 mi SSW 17.3 mph 27.6 mph N/A   Clear
2:35 PM 82.4 °F 51.8 °F 35% 30.04 in 10.0 mi South 19.6 mph 27.6 mph N/A   Clear
2:55 PM 82.4 °F 51.8 °F 35% 30.03 in 10.0 mi South 21.9 mph 26.5 mph N/A   Clear
3:15 PM 80.6 °F 51.8 °F 37% 30.02 in 10.0 mi South 19.6 mph - N/A   Clear
3:35 PM 82.4 °F 51.8 °F 35% 30.02 in 10.0 mi South 23.0 mph 29.9 mph N/A   Clear
3:55 PM 82.4 °F 51.8 °F 35% 30.01 in 10.0 mi South 21.9 mph 26.5 mph N/A   Clear
4:15 PM 82.4 °F 50.0 °F 32% 30.01 in 10.0 mi South 19.6 mph 26.5 mph N/A   Clear
4:35 PM 82.4 °F 51.8 °F 35% 30.01 in 10.0 mi South 20.7 mph 25.3 mph N/A   Clear
4:55 PM 82.4 °F 51.8 °F 35% 30.00 in 10.0 mi South 19.6 mph 25.3 mph N/A   Clear
5:15 PM 82.4 °F 51.8 °F 35% 30.00 in 10.0 mi SSW 20.7 mph 27.6 mph N/A   Clear
5:35 PM 80.6 °F 51.8 °F 37% 30.00 in 10.0 mi SSW 16.1 mph 24.2 mph N/A   Clear
5:55 PM 78.8 °F 51.8 °F 39% 30.00 in 10.0 mi South 17.3 mph 20.7 mph N/A   Clear
6:15 PM 78.8 °F 51.8 °F 39% 30.00 in 10.0 mi South 15.0 mph 23.0 mph N/A   Clear
6:35 PM 78.8 °F 51.8 °F 39% 30.00 in 10.0 mi South 16.1 mph 21.9 mph N/A   Clear
6:55 PM 77.0 °F 50.0 °F 39% 30.00 in 10.0 mi South 15.0 mph 20.7 mph N/A   Clear
7:15 PM 77.0 °F 50.0 °F 39% 30.00 in 10.0 mi South 15.0 mph - N/A   Clear
7:35 PM 73.4 °F 50.0 °F 44% 30.00 in 10.0 mi South 15.0 mph - N/A   Clear
7:55 PM 73.4 °F 51.8 °F 47% 30.00 in 10.0 mi South 13.8 mph - N/A   Clear
8:15 PM 73.4 °F 51.8 °F 47% 30.01 in 10.0 mi South 13.8 mph 18.4 mph N/A   Clear
8:35 PM 71.6 °F 51.8 °F 50% 30.01 in 10.0 mi South 16.1 mph - N/A   Clear
8:55 PM 71.6 °F 51.8 °F 50% 30.01 in 10.0 mi South 16.1 mph - N/A   Clear
9:15 PM 71.6 °F 51.8 °F 50% 30.02 in 10.0 mi South 13.8 mph - N/A   Clear
9:35 PM 69.8 °F 51.8 °F 53% 30.03 in 10.0 mi SSW 16.1 mph - N/A   Clear
9:55 PM 69.8 °F 51.8 °F 53% 30.03 in 10.0 mi South 15.0 mph - N/A   Clear
10:15 PM 69.8 °F 51.8 °F 53% 30.04 in 10.0 mi SSW 16.1 mph - N/A   Clear
10:35 PM 69.8 °F 51.8 °F 53% 30.04 in 10.0 mi SSW 16.1 mph - N/A   Clear
10:55 PM 69.8 °F 51.8 °F 53% 30.05 in 10.0 mi SSW 18.4 mph 23.0 mph N/A   Clear
11:35 PM 68.0 °F 51.8 °F 56% 30.05 in 10.0 mi SSW 19.6 mph 24.2 mph N/A   Clear
11:55 PM 68.0 °F 51.8 °F 56% 30.05 in 10.0 mi SSW 18.4 mph - N/A   Clear